{"data":{"norad_id":68719,"intl_designator":"2026-081W","name":"STARLINK-36686","alt_names":[],"object_type":"PAYLOAD","status":"ACTIVE","operator":null,"country":"US","launch_date":"2026-04-14","launch_site_code":"AFETR","launch_vehicle":null,"mission":null,"orbit_class":"UNKNOWN","rcs_meters":null,"size_class":null,"mass_kg":null,"dimensions":null,"purposes":["comms"],"wikipedia_slug":null,"has_3d_model":false,"image_url":null,"decayed_at":null,"tle_current":{"epoch":"2026-09-19T11:29:09.861504Z","epoch_age_seconds":133064,"freshness":"FRESH","line1":"1 68719U 26081W   26262.47858636  .00020663  00000+0  62089-3 0  9997","line2":"2 68719  53.1571 210.3482 0001185  84.3888 275.7250 15.34405218 24466","mean_motion":15.34405218,"eccentricity":0.0001185,"inclination_deg":53.1571,"raan_deg":210.3482,"arg_perigee_deg":84.3888,"mean_anomaly_deg":275.725,"bstar":0.00062089,"rev_number":2446,"period_min":93.847438936434,"perigee_km":461.87709352476,"apogee_km":463.49836898607,"semimajor_km":6840.8247312554,"source":"CELESTRAK","updated_at":"2026-09-20T09:00:43.986003Z"}}}